K0SNA Weather Reports


Display with metric or nautical units.
time (UTC)temp
F
wind
direction
speed
MPH
gust
MPH
rain 1hr
in
rain 24hr
in
rain mn
in
humidity
%
barometer
mb
20260901044114 69 223 0.0 0.0 0.00 0.00 0.00 88 1013.2
20260901043609 69 223 0.0 0.0 0.00 0.00 0.00 88 1013.3
20260901043105 69 223 0.0 0.0 0.00 0.00 0.00 88 1013.2
20260901042604 69 223 0.0 0.0 0.00 0.00 0.00 87 1013.0
20260901042059 69 223 0.0 0.0 0.00 0.00 0.00 87 1013.2
20260901041554 70 223 0.0 0.0 0.00 0.00 0.00 87 1013.3
20260901041049 70 223 0.0 0.0 0.00 0.00 0.00 86 1013.3
20260901040548 70 223 0.0 0.0 0.00 0.00 0.00 86 1013.3
20260901040043 70 223 0.0 0.0 0.00 0.00 0.00 85 1013.4
20260901035541 70 223 0.0 0.0 0.00 0.00 0.00 85 1013.4
20260901035039 71 223 0.0 0.0 0.00 0.00 0.00 85 1013.5
20260901034534 71 224 0.0 0.0 0.00 0.00 0.00 84 1013.4
20260901034029 71 224 0.0 0.0 0.00 0.00 0.00 84 1013.4
20260901033528 71 224 0.0 0.0 0.00 0.00 0.00 83 1013.4
20260901033028 72 224 0.0 0.0 0.00 0.00 0.00 82 1013.5
20260901032527 72 224 0.0 0.0 0.00 0.00 0.00 81 1013.2
20260901032022 73 224 0.0 0.0 0.00 0.00 0.00 80 1013.3
20260901031517 73 224 0.0 0.0 0.00 0.00 0.00 80 1013.3
20260901031013 73 224 0.0 0.0 0.00 0.00 0.00 79 1013.4
20260901030512 73 224 0.0 0.0 0.00 0.00 0.00 79 1013.3
20260901030007 74 224 0.0 0.0 0.00 0.00 0.00 78 1013.3
20260901025507 74 224 0.0 0.0 0.00 0.00 0.00 77 1013.1
20260901025001 74 224 0.0 0.0 0.00 0.00 0.00 77 1013.1
20260901024456 75 224 0.0 0.0 0.00 0.00 0.00 76 1013.1
20260901023955 76 224 0.0 0.0 0.00 0.00 0.00 74 1013.0
20260901023449 76 224 0.0 1.0 0.00 0.00 0.00 73 1013.2
20260901022944 76 224 1.0 2.0 0.00 0.00 0.00 73 1013.0
20260901022440 77 222 1.0 1.0 0.00 0.00 0.00 72 1013.1
20260901021934 77 222 0.0 0.0 0.00 0.00 0.00 72 1012.8
20260901021430 77 222 1.0 2.0 0.00 0.00 0.00 71 1012.8
20260901020925 77 217 0.0 0.0 0.00 0.00 0.00 71 1013.0
20260901020421 77 217 0.0 0.0 0.00 0.00 0.00 71 1013.0
20260901015919 77 216 0.0 0.0 0.00 0.00 0.00 71 1012.9
20260901015416 77 216 0.0 0.0 0.00 0.00 0.00 71 1012.8
20260901014915 78 216 0.0 0.0 0.00 0.00 0.00 70 1012.8
20260901014412 78 216 0.0 0.0 0.00 0.00 0.00 70 1012.6
20260901013907 78 222 0.0 0.0 0.00 0.00 0.00 69 1012.7
20260901013403 78 222 0.0 0.0 0.00 0.00 0.00 69 1012.8
20260901012858 79 223 1.0 2.0 0.00 0.00 0.00 67 1012.6
20260901012353 79 223 0.0 0.0 0.00 0.00 0.00 66 1012.4
20260901011849 80 222 0.0 0.0 0.00 0.00 0.00 65 1012.5
20260901011344 80 222 1.0 1.0 0.00 0.00 0.00 63 1012.6
20260901010843 80 222 0.0 0.0 0.00 0.00 0.00 62 1012.2
20260901010337 80 222 0.0 1.0 0.00 0.00 0.00 61 1012.2
20260901005836 81 222 1.0 2.0 0.00 0.00 0.00 60 1012.4
20260901005331 81 220 1.0 2.0 0.00 0.00 0.00 60 1012.2
20260901004827 81 214 0.0 0.0 0.00 0.00 0.00 60 1012.2
20260901004320 81 214 0.0 0.0 0.00 0.00 0.00 60 1012.2
20260901003815 82 214 0.0 0.0 0.00 0.00 0.00 58 1012.3
20260901003310 83 214 0.0 0.0 0.00 0.00 0.00 57 1012.1
20260901002808 83 214 0.0 0.0 0.00 0.00 0.00 56 1012.0
20260901002305 84 214 1.0 1.0 0.00 0.00 0.00 54 1012.1
20260901001758 84 230 0.0 2.0 0.00 0.00 0.00 54 1012.1
20260901001254 85 224 1.0 2.0 0.00 0.00 0.00 53 1012.1
20260901000743 85 253 0.0 1.0 0.00 0.00 0.00 53 1012.3
20260901000240 85 237 1.0 1.0 0.00 0.00 0.00 53 1012.0
20260831235732 85 269 1.0 2.0 0.00 0.00 0.00 53 1012.0
20260831235228 86 234 1.0 2.0 0.00 0.00 0.00 52 1011.9
20260831234727 86 213 1.0 2.0 0.00 0.00 0.00 51 1012.2
20260831234222 86 247 1.0 3.0 0.00 0.00 0.00 51 1011.9
20260831233717 86 220 0.0 1.0 0.00 0.00 0.00 51 1012.0
20260831233213 87 251 2.0 2.0 0.00 0.00 0.00 51 1011.9
20260831232712 87 267 2.0 2.0 0.00 0.00 0.00 50 1012.0
20260831232209 87 269 3.0 3.0 0.00 0.00 0.00 49 1011.9
20260831231705 88 233 3.0 5.0 0.00 0.00 0.00 49 1012.0
20260831231201 88 274 3.0 3.0 0.00 0.00 0.00 49 1011.8
20260831230701 88 309 3.0 3.0 0.00 0.00 0.00 49 1011.8
20260831230156 88 234 3.0 5.0 0.00 0.00 0.00 48 1011.8
20260831225655 88 242 2.0 5.0 0.00 0.00 0.00 49 1011.9
20260831225150 88 253 2.0 3.0 0.00 0.00 0.00 48 1011.8
20260831224645 89 300 3.0 5.0 0.00 0.00 0.00 48 1011.7
20260831224141 90 338 3.0 5.0 0.00 0.00 0.00 46 1011.8
20260831223636 91 217 0.0 1.0 0.00 0.00 0.00 43 1011.7
20260831223133 90 208 2.0 5.0 0.00 0.00 0.00 44 1011.6
20260831222627 90 299 2.0 5.0 0.00 0.00 0.00 44 1011.8
20260831222123 90 249 2.0 2.0 0.00 0.00 0.00 44 1011.6
20260831221619 90 262 2.0 5.0 0.00 0.00 0.00 45 1011.5
20260831221114 91 216 1.0 3.0 0.00 0.00 0.00 44 1011.4
20260831220608 92 238 3.0 6.0 0.00 0.00 0.00 45 1011.4
20260831220104 92 230 1.0 2.0 0.00 0.00 0.00 44 1011.6
20260831215559 91 246 2.0 5.0 0.00 0.00 0.00 45 1011.6
20260831215055 91 253 1.0 2.0 0.00 0.00 0.00 45 1011.5
20260831214547 90 238 3.0 3.0 0.00 0.00 0.00 45 1011.4
20260831214042 91 244 3.0 5.0 0.00 0.00 0.00 44 1011.4
20260831213539 93 203 2.0 5.0 0.00 0.00 0.00 41 1011.3
20260831213034 93 210 1.0 2.0 0.00 0.00 0.00 43 1011.3
20260831212530 94 220 1.0 5.0 0.00 0.00 0.00 43 1011.3
20260831212025 93 217 2.0 5.0 0.00 0.00 0.00 42 1011.4
20260831211520 92 249 1.0 3.0 0.00 0.00 0.00 43 1011.4
20260831211019 93 264 4.0 6.0 0.00 0.00 0.00 41 1011.2
20260831210514 93 236 1.0 2.0 0.00 0.00 0.00 43 1011.2
20260831210010 93 226 0.0 1.0 0.00 0.00 0.00 42 1011.1
20260831205505 94 256 2.0 2.0 0.00 0.00 0.00 41 1011.4
20260831205001 92 217 0.0 1.0 0.00 0.00 0.00 41 1011.2
20260831204500 92 144 1.0 3.0 0.00 0.00 0.00 44 1011.2
20260831203954 92 230 2.0 2.0 0.00 0.00 0.00 40 1011.2
20260831203453 91 155 0.0 2.0 0.00 0.00 0.00 44 1011.1
20260831202951 92 330 3.0 3.0 0.00 0.00 0.00 42 1011.3
20260831202447 94 357 6.0 8.0 0.00 0.00 0.00 39 1011.5
20260831201946 92 244 3.0 3.0 0.00 0.00 0.00 39 1011.5
20260831201445 94 233 1.0 2.0 0.00 0.00 0.00 41 1011.5
20260831200941 92 236 1.0 5.0 0.00 0.00 0.00 43 1011.3
20260831200436 91 207 2.0 2.0 0.00 0.00 0.00 44 1011.3
20260831195936 91 119 2.0 2.0 0.00 0.00 0.00 45 1011.3
20260831195431 91 320 4.0 6.0 0.00 0.00 0.00 43 1011.2
20260831194926 90 8 3.0 5.0 0.00 0.00 0.00 47 1011.3
20260831194422 91 88 2.0 5.0 0.00 0.00 0.00 45 1011.2
20260831193921 91 24 3.0 5.0 0.00 0.00 0.00 43 1011.2
20260831193416 90 181 0.0 3.0 0.00 0.00 0.00 45 1011.1
20260831192912 90 217 3.0 3.0 0.00 0.00 0.00 44 1011.0
20260831192407 91 151 1.0 5.0 0.00 0.00 0.00 44 1011.2
20260831191902 93 8 3.0 5.0 0.00 0.00 0.00 42 1011.0
20260831191358 92 131 1.0 2.0 0.00 0.00 0.00 48 1011.1
20260831190854 92 272 2.0 3.0 0.00 0.00 0.00 46 1011.1
20260831190353 91 194 0.0 1.0 0.00 0.00 0.00 46 1011.2
20260831185853 90 282 2.0 3.0 0.00 0.00 0.00 47 1011.1
20260831185349 90 73 3.0 3.0 0.00 0.00 0.00 49 1011.2
20260831184848 90 134 1.0 2.0 0.00 0.00 0.00 48 1011.0
20260831184343 89 131 2.0 3.0 0.00 0.00 0.00 51 1011.0
20260831183839 89 91 2.0 5.0 0.00 0.00 0.00 52 1011.0
20260831183333 89 243 3.0 5.0 0.00 0.00 0.00 52 1011.2
20260831182832 88 322 5.0 6.0 0.00 0.00 0.00 52 1011.1
20260831182327 88 300 3.0 5.0 0.00 0.00 0.00 49 1011.1
20260831181823 89 352 3.0 5.0 0.00 0.00 0.00 47 1011.1
20260831181318 89 110 4.0 7.0 0.00 0.00 0.00 49 1011.1
20260831180813 87 248 2.0 3.0 0.00 0.00 0.00 59 1011.1
20260831180308 88 287 4.0 5.0 0.00 0.00 0.00 61 1011.2
20260831175806 87 160 1.0 3.0 0.00 0.00 0.00 59 1011.0
20260831175306 87 254 3.0 3.0 0.00 0.00 0.00 61 1011.3
20260831174758 87 229 1.0 2.0 0.00 0.00 0.00 65 1011.2
20260831174254 87 230 2.0 2.0 0.00 0.00 0.00 66 1011.4
20260831173753 86 214 3.0 3.0 0.00 0.00 0.00 66 1011.1
20260831173247 86 10 3.0 5.0 0.00 0.00 0.00 69 1011.3
20260831172742 86 90 1.0 5.0 0.00 0.00 0.00 69 1011.4
20260831172232 86 194 1.0 5.0 0.00 0.00 0.00 71 1011.5
20260831171726 85 224 2.0 2.0 0.00 0.00 0.00 71 1011.4
20260831171224 86 224 1.0 6.0 0.00 0.00 0.00 71 1011.4
20260831170720 85 211 3.0 3.0 0.00 0.00 0.00 71 1011.4
20260831170216 85 43 5.0 6.0 0.00 0.00 0.00 71 1011.5
20260831165712 85 262 2.0 3.0 0.00 0.00 0.00 72 1011.4
20260831165209 84 350 3.0 3.0 0.00 0.00 0.00 73 1011.4
20260831164704 84 32 2.0 3.0 0.00 0.00 0.00 72 1011.5
20260831164200 85 207 1.0 2.0 0.00 0.00 0.00 71 1011.2
20260831163655 85 120 1.0 2.0 0.00 0.00 0.00 73 1011.3
20260831163151 84 155 1.0 1.0 0.00 0.00 0.00 74 1011.2
20260831162650 84 203 2.0 5.0 0.00 0.00 0.00 74 1011.1
20260831162148 84 262 2.0 3.0 0.00 0.00 0.00 74 1010.8
20260831161644 83 189 0.0 1.0 0.00 0.00 0.00 76 1010.9
20260831161140 83 212 1.0 3.0 0.00 0.00 0.00 76 1010.9
20260831160639 83 252 2.0 3.0 0.00 0.00 0.00 76 1011.2
20260831160135 82 262 1.0 3.0 0.00 0.00 0.00 77 1011.1
20260831155634 82 127 0.0 1.0 0.00 0.00 0.00 77 1010.9
20260831155130 83 122 2.0 2.0 0.00 0.00 0.00 77 1011.0
20260831154626 83 84 0.0 2.0 0.00 0.00 0.00 77 1011.2
20260831154120 82 85 1.0 5.0 0.00 0.00 0.00 77 1011.0
20260831153620 82 333 1.0 3.0 0.00 0.00 0.00 77 1010.9
20260831153117 82 230 3.0 3.0 0.00 0.00 0.00 77 1011.0
20260831152617 82 209 0.0 3.0 0.00 0.00 0.00 78 1010.8
20260831152113 82 220 1.0 2.0 0.00 0.00 0.00 78 1011.0
20260831151612 81 226 1.0 2.0 0.00 0.00 0.00 80 1010.8
20260831151107 80 235 5.0 5.0 0.00 0.00 0.00 80 1010.9
20260831150601 81 205 3.0 5.0 0.00 0.00 0.00 80 1010.8
20260831150058 80 195 2.0 2.0 0.00 0.00 0.00 81 1010.6
20260831145551 80 330 4.0 5.0 0.00 0.00 0.00 81 1010.7
20260831145048 80 351 3.0 3.0 0.00 0.00 0.00 82 1010.7
20260831144543 79 219 0.0 1.0 0.00 0.00 0.00 82 1010.4
20260831144038 79 344 3.0 3.0 0.00 0.00 0.00 82 1010.4
20260831143527 79 211 0.0 2.0 0.00 0.00 0.00 83 1010.4
20260831143023 78 242 2.0 3.0 0.00 0.00 0.00 84 1010.3
20260831142520 78 284 3.0 3.0 0.00 0.00 0.00 84 1010.1
20260831142014 78 238 2.0 2.0 0.00 0.00 0.00 84 1010.0
20260831141508 78 232 1.0 3.0 0.00 0.00 0.00 84 1010.1
20260831141003 78 212 1.0 2.0 0.00 0.00 0.00 84 1010.1
20260831140502 77 252 3.0 5.0 0.00 0.00 0.00 85 1010.0
20260831140001 77 219 2.0 2.0 0.00 0.00 0.00 85 1010.1
20260831135500 76 195 0.0 2.0 0.00 0.00 0.00 87 1010.0
20260831134955 76 213 1.0 3.0 0.00 0.00 0.00 87 1009.8
20260831134451 76 232 3.0 3.0 0.00 0.00 0.00 86 1009.8
20260831133946 76 283 3.0 6.0 0.00 0.00 0.00 86 1009.7
20260831133445 76 223 1.0 5.0 0.00 0.00 0.00 87 1009.7
20260831132941 75 201 3.0 5.0 0.00 0.00 0.00 87 1009.5
20260831132436 75 252 2.0 7.0 0.00 0.00 0.00 88 1009.7
20260831131936 75 206 1.0 2.0 0.00 0.00 0.00 89 1009.7
20260831131431 74 200 0.0 2.0 0.00 0.00 0.00 90 1009.5
20260831130927 74 198 0.0 2.0 0.00 0.00 0.00 92 1009.3
20260831130422 73 199 0.0 1.0 0.00 0.00 0.00 93 1009.3
20260831125921 73 203 1.0 3.0 0.00 0.00 0.00 94 1009.3
20260831125416 73 212 2.0 5.0 0.00 0.00 0.00 94 1009.3
20260831124912 72 201 0.0 2.0 0.00 0.00 0.00 95 1009.0
20260831124408 72 203 3.0 5.0 0.00 0.00 0.00 96 1009.2
20260831123903 72 235 2.0 3.0 0.00 0.00 0.00 96 1009.1
20260831123401 72 223 1.0 2.0 0.00 0.00 0.00 96 1009.0
20260831122856 72 208 1.0 3.0 0.00 0.00 0.00 96 1008.9
20260831122352 71 230 1.0 5.0 0.00 0.00 0.00 96 1009.1
20260831121846 71 207 1.0 1.0 0.00 0.00 0.00 97 1009.0
20260831121342 71 214 0.0 0.0 0.00 0.00 0.00 96 1008.9
20260831120838 70 207 0.0 1.0 0.00 0.00 0.00 96 1008.9
20260831120332 70 207 0.0 1.0 0.00 0.00 0.00 96 1008.8
20260831115827 69 201 0.0 0.0 0.00 0.00 0.00 96 1008.7
20260831115324 69 201 0.0 0.0 0.00 0.00 0.00 96 1008.7
20260831114823 69 201 0.0 0.0 0.00 0.00 0.00 96 1008.7
20260831114322 70 201 0.0 0.0 0.00 0.00 0.00 96 1008.5
20260831113818 69 201 0.0 0.0 0.00 0.00 0.00 96 1008.3
20260831113318 69 201 0.0 0.0 0.00 0.00 0.00 96 1008.5
20260831112812 69 201 0.0 0.0 0.00 0.00 0.00 96 1008.3
20260831112307 70 201 0.0 0.0 0.00 0.00 0.00 96 1008.3
20260831111803 70 207 0.0 0.0 0.00 0.00 0.00 96 1008.2
20260831111259 70 207 0.0 0.0 0.00 0.00 0.00 96 1008.1
20260831110754 70 207 0.0 0.0 0.00 0.00 0.00 95 1008.1
20260831110249 70 215 0.0 0.0 0.00 0.00 0.00 95 1007.9
20260831105748 70 200 0.0 0.0 0.00 0.00 0.00 95 1008.0
20260831105244 71 200 0.0 0.0 0.00 0.00 0.00 95 1007.7
20260831104743 71 200 0.0 0.0 0.00 0.00 0.00 95 1007.8
20260831104240 71 205 0.0 0.0 0.00 0.00 0.00 95 1007.8
20260831103735 71 205 0.0 0.0 0.00 0.00 0.00 95 1008.0
20260831103231 71 205 0.0 0.0 0.00 0.00 0.00 95 1008.0
20260831102730 71 205 0.0 0.0 0.00 0.00 0.00 95 1008.1
20260831102225 71 207 0.0 0.0 0.00 0.00 0.00 94 1007.9
20260831101721 71 207 0.0 0.0 0.00 0.00 0.00 94 1007.8
20260831101216 71 207 0.0 0.0 0.00 0.00 0.00 94 1008.1
20260831100712 71 207 0.0 0.0 0.00 0.00 0.00 94 1007.9
20260831100208 71 208 0.0 0.0 0.00 0.00 0.00 94 1007.9
20260831095706 72 207 0.0 0.0 0.00 0.00 0.00 94 1007.7
20260831095201 72 213 0.0 0.0 0.00 0.00 0.00 94 1007.8
20260831094656 72 198 0.0 0.0 0.00 0.00 0.00 94 1007.9
20260831094152 72 198 0.0 0.0 0.00 0.00 0.00 94 1007.9
20260831093648 72 195 0.0 2.0 0.00 0.00 0.00 93 1007.8
20260831093144 72 193 0.0 0.0 0.00 0.00 0.00 93 1007.7
20260831092640 72 209 0.0 0.0 0.00 0.00 0.00 93 1007.9
20260831092135 72 203 0.0 0.0 0.00 0.00 0.00 93 1007.7
20260831091634 72 203 0.0 0.0 0.00 0.00 0.00 92 1007.7
20260831091130 72 202 0.0 0.0 0.00 0.00 0.00 92 1007.9
20260831090626 73 200 0.0 0.0 0.00 0.00 0.00 92 1007.7
20260831090122 73 200 0.0 0.0 0.00 0.00 0.00 92 1007.7
20260831085617 73 202 1.0 2.0 0.00 0.00 0.00 92 1007.8
20260831085112 73 215 1.0 1.0 0.00 0.00 0.00 92 1007.8
20260831084608 73 212 1.0 2.0 0.00 0.00 0.00 92 1007.8
20260831084104 73 225 0.0 0.0 0.00 0.00 0.00 92 1007.8
20260831083600 73 210 0.0 1.0 0.00 0.00 0.00 92 1007.8
20260831083054 73 210 0.0 1.0 0.00 0.00 0.00 92 1007.5
20260831082548 72 200 0.0 0.0 0.00 0.00 0.00 92 1007.7
20260831082043 72 205 0.0 0.0 0.00 0.00 0.00 92 1007.5
20260831081539 72 213 0.0 0.0 0.00 0.00 0.00 91 1007.6
20260831081034 72 199 0.0 0.0 0.00 0.00 0.00 91 1007.6
20260831080529 73 199 0.0 0.0 0.00 0.00 0.00 91 1007.6
20260831080024 73 199 0.0 0.0 0.00 0.00 0.00 90 1007.6
20260831075519 73 213 0.0 0.0 0.00 0.00 0.00 90 1007.9
20260831075015 73 197 0.0 0.0 0.00 0.00 0.00 90 1007.7
20260831074509 73 207 0.0 0.0 0.00 0.00 0.00 90 1007.6
20260831074008 73 166 0.0 0.0 0.00 0.00 0.00 90 1007.6
20260831073503 73 216 1.0 1.0 0.00 0.00 0.00 89 1007.7
20260831073002 73 207 0.0 0.0 0.00 0.00 0.00 89 1007.4
20260831072458 73 202 0.0 0.0 0.00 0.00 0.00 89 1007.6
20260831071954 73 203 0.0 0.0 0.00 0.00 0.00 89 1007.6
20260831071453 73 174 0.0 1.0 0.00 0.00 0.00 89 1007.6
20260831070947 73 192 0.0 2.0 0.00 0.00 0.00 89 1007.9
20260831070441 74 190 0.0 0.0 0.00 0.00 0.00 88 1007.8
20260831065941 74 204 0.0 2.0 0.00 0.00 0.00 88 1007.9
20260831065439 74 187 1.0 2.0 0.00 0.00 0.00 88 1007.9
20260831064934 74 163 1.0 2.0 0.00 0.00 0.00 88 1007.9
20260831064428 74 195 0.0 2.0 0.00 0.00 0.00 88 1008.2
20260831063925 74 194 0.0 1.0 0.00 0.00 0.00 88 1008.2
20260831063419 74 193 0.0 2.0 0.00 0.00 0.00 87 1008.1
20260831062914 74 181 0.0 1.0 0.00 0.00 0.00 87 1008.3
20260831062410 74 178 1.0 2.0 0.00 0.00 0.00 87 1008.4
20260831061908 74 203 0.0 2.0 0.00 0.00 0.00 87 1008.2
20260831061407 74 208 1.0 2.0 0.00 0.00 0.00 87 1008.5
20260831060903 74 199 0.0 0.0 0.00 0.00 0.00 87 1008.4
20260831060358 74 200 0.0 0.0 0.00 0.00 0.00 87 1008.5
20260831055857 74 202 0.0 2.0 0.00 0.00 0.00 87 1008.5
20260831055352 74 182 0.0 1.0 0.00 0.00 0.00 87 1008.4
20260831054848 74 171 1.0 2.0 0.00 0.00 0.00 87 1008.5
20260831054343 74 210 0.0 2.0 0.00 0.00 0.00 87 1008.6
20260831053842 74 194 0.0 2.0 0.00 0.00 0.00 87 1008.5
20260831053340 74 200 0.0 1.0 0.00 0.00 0.00 87 1008.8
20260831052835 74 191 0.0 2.0 0.00 0.00 0.00 86 1008.9
20260831052335 74 222 2.0 2.0 0.00 0.00 0.00 87 1009.0
20260831051833 74 196 0.0 0.0 0.00 0.00 0.00 86 1009.1
20260831051332 74 176 1.0 2.0 0.00 0.00 0.00 86 1009.0
20260831050827 74 177 0.0 2.0 0.00 0.00 0.00 86 1009.0
20260831050326 74 208 0.0 1.0 0.00 0.00 0.00 86 1009.2
20260831045820 74 198 0.0 0.0 0.00 0.00 0.00 86 1009.2
20260831045314 74 208 0.0 2.0 0.00 0.00 0.00 86 1009.2
20260831044809 74 192 0.0 1.0 0.00 0.00 0.00 86 1009.1